Location: Asbacherhof
(48.8543°N, 10.7903°E)
Time: 17:30:13
(UTC+00:00)

USA 215 - Pass Details

Date: 26 May 2022
Orbit: 1099 x 1108 km, 123.0° (Epoch: 10 June)

Event Time Altitude Azimuth Distance (km) Brightness Sun altitude
Rises 00:16:45 0° 61° (ENE) 3,924 6.9 -18.7°
Reaches altitude 10° 00:19:16 10° 57° (ENE) 2,966 6.2 -18.5°
Maximum altitude 00:25:37 55° 342° (NNW) 1,315 3.9 -18.2°
Drops below altitude 10° 00:31:57 10° 267° (W) 2,967 5.3 -17.9°
Sets 00:34:29 0° 263° (W) 3,925 5.9 -17.8°
